When you browse on this site, cookies collect data to enhance your experience and personalize the content and advertising you see.
Visit our Privacy Policy to learn more. By continuing to use the site, you agree to this use of cookies and data.
  • Em Portugal
  • Lista de países
  • Para 7 dias
  • Temperatura da água
  • Mapas de satélite
  • Mapa do tempo
  • Widgets de tempo
  • user-avatar
    Iniciar Sessão

    Previsão horária em Cuiaba

    Hoje, 19 Dezembro, Quarta-feira

    Tempo Temperatura Precipitação Vento Pressão Humidade
    00:00 +27°C° 0 mm 1 m/s 741 mmHg 61%
    01:00 +27°C° 0 mm 1 m/s 741 mmHg 62%
    02:00 +26°C° 0 mm 1 m/s 741 mmHg 64%
    03:00 +26°C° 0 mm 1 m/s 741 mmHg 65%
    04:00 +26°C° 0 mm 1 m/s 741 mmHg 66%
    05:00 +26°C° 0 mm 1 m/s 741 mmHg 67%
    06:00 +26°C° 0 mm 0 m/s 742 mmHg 62%
    07:00 +28°C° 0 mm 0 m/s 742 mmHg 57%
    08:00 +30°C° 0 mm 0 m/s 743 mmHg 52%
    09:00 +32°C° 0 mm 0 m/s 742 mmHg 46%
    10:00 +37°C° 0 mm 1 m/s 742 mmHg 40%
    11:00 +40°C° 0 mm 1 m/s 742 mmHg 34%
    12:00 +40°C° 0 mm 1 m/s 741 mmHg 35%
    13:00 +39°C° 0 mm 1 m/s 740 mmHg 35%
    14:00 +39°C° 0 mm 1 m/s 739 mmHg 35%
    15:00 +37°C° 0 mm 1 m/s 739 mmHg 38%
    16:00 +36°C° 0 mm 1 m/s 739 mmHg 40%
    17:00 +36°C° 0 mm 1 m/s 738 mmHg 43%
    18:00 +34°C° 0 mm 1 m/s 738 mmHg 45%
    19:00 +33°C° 0 mm 1 m/s 739 mmHg 48%
    20:00 +31°C° 0 mm 1 m/s 739 mmHg 51%
    21:00 +30°C° 0.1 mm 1 m/s 739 mmHg 54%
    22:00 +29°C° 0.1 mm 1 m/s 739 mmHg 57%
    23:00 +29°C° 0.1 mm 1 m/s 739 mmHg 61%

    Amanhã, 20 Dezembro, Quinta-feira

    Tempo Temperatura Precipitação Vento Pressão Humidade
    00:00 +28°C° 0 mm 1 m/s 739 mmHg 63%
    01:00 +28°C° 0 mm 1 m/s 739 mmHg 65%
    02:00 +27°C° 0 mm 1 m/s 738 mmHg 67%
    03:00 +27°C° 0.1 mm 1 m/s 738 mmHg 69%
    04:00 +27°C° 0.1 mm 1 m/s 738 mmHg 72%
    05:00 +26°C° 0.1 mm 1 m/s 739 mmHg 74%
    06:00 +28°C° 0.1 mm 1 m/s 739 mmHg 68%
    07:00 +30°C° 0.1 mm 1 m/s 740 mmHg 63%
    08:00 +32°C° 0.1 mm 1 m/s 741 mmHg 57%
    09:00 +34°C° 0.1 mm 1 m/s 741 mmHg 51%
    10:00 +36°C° 0.1 mm 1 m/s 740 mmHg 45%
    11:00 +39°C° 0.1 mm 1 m/s 740 mmHg 40%
    12:00 +39°C° 0 mm 1 m/s 739 mmHg 40%
    13:00 +37°C° 0 mm 1 m/s 739 mmHg 41%
    14:00 +36°C° 0 mm 1 m/s 738 mmHg 42%
    15:00 +36°C° 0 mm 1 m/s 738 mmHg 44%
    16:00 +35°C° 0 mm 1 m/s 737 mmHg 46%
    17:00 +34°C° 0 mm 1 m/s 737 mmHg 49%
    18:00 +33°C° 0.2 mm 1 m/s 737 mmHg 53%
    19:00 +31°C° 0.2 mm 1 m/s 738 mmHg 57%
    20:00 +30°C° 0.2 mm 1 m/s 738 mmHg 62%
    21:00 +29°C° 0.4 mm 1 m/s 738 mmHg 67%
    22:00 +28°C° 0.4 mm 1 m/s 739 mmHg 73%
    23:00 +27°C° 0.4 mm 1 m/s 739 mmHg 78%

    Depois de amanhã, 21 Dezembro, Sexta-feira

    Tempo Temperatura Precipitação Vento Pressão Humidade
    00:00 +27°C° 0.5 mm 1 m/s 739 mmHg 80%
    01:00 +26°C° 0.5 mm 1 m/s 738 mmHg 82%
    02:00 +26°C° 0.5 mm 1 m/s 738 mmHg 84%
    03:00 +26°C° 0.3 mm 1 m/s 738 mmHg 85%
    04:00 +26°C° 0.3 mm 1 m/s 738 mmHg 85%
    05:00 +25°C° 0.3 mm 1 m/s 738 mmHg 86%
    06:00 +27°C° 0.2 mm 1 m/s 739 mmHg 79%
    07:00 +29°C° 0.2 mm 1 m/s 740 mmHg 71%
    08:00 +31°C° 0.2 mm 2 m/s 740 mmHg 64%
    09:00 +34°C° 0.2 mm 2 m/s 740 mmHg 56%
    10:00 +36°C° 0.2 mm 2 m/s 740 mmHg 48%
    11:00 +38°C° 0.2 mm 2 m/s 740 mmHg 40%
    12:00 +38°C° 0 mm 2 m/s 739 mmHg 41%
    13:00 +38°C° 0 mm 2 m/s 738 mmHg 42%
    14:00 +37°C° 0 mm 2 m/s 738 mmHg 43%
    15:00 +37°C° 0.1 mm 2 m/s 737 mmHg 44%
    16:00 +37°C° 0.1 mm 2 m/s 737 mmHg 46%
    17:00 +36°C° 0.1 mm 2 m/s 737 mmHg 47%
    18:00 +34°C° 0.2 mm 2 m/s 737 mmHg 52%
    19:00 +32°C° 0.2 mm 2 m/s 738 mmHg 57%
    20:00 +30°C° 0.2 mm 2 m/s 738 mmHg 63%
    21:00 +29°C° 0.2 mm 1 m/s 738 mmHg 66%
    22:00 +28°C° 0.2 mm 1 m/s 739 mmHg 69%
    23:00 +28°C° 0.2 mm 1 m/s 739 mmHg 72%

    22 Dezembro, Sábado

    Tempo Temperatura Precipitação Vento Pressão Humidade
    00:00 +27°C° 0 mm 1 m/s 739 mmHg 73%
    01:00 +27°C° 0 mm 1 m/s 738 mmHg 74%
    02:00 +27°C° 0 mm 1 m/s 738 mmHg 76%
    03:00 +27°C° 0.5 mm 1 m/s 738 mmHg 77%
    04:00 +26°C° 0.5 mm 1 m/s 738 mmHg 79%
    05:00 +26°C° 0.5 mm 1 m/s 739 mmHg 81%
    06:00 +28°C° 0.3 mm 1 m/s 739 mmHg 76%
    07:00 +29°C° 0.3 mm 1 m/s 740 mmHg 71%
    08:00 +31°C° 0.3 mm 1 m/s 741 mmHg 66%
    09:00 +33°C° 0.2 mm 1 m/s 740 mmHg 58%
    10:00 +35°C° 0.2 mm 1 m/s 740 mmHg 51%
    11:00 +38°C° 0.2 mm 2 m/s 740 mmHg 43%
    12:00 +36°C° 0.1 mm 1 m/s 739 mmHg 44%
    13:00 +36°C° 0.1 mm 1 m/s 738 mmHg 46%
    14:00 +35°C° 0.1 mm 1 m/s 738 mmHg 47%
    15:00 +35°C° 0 mm 1 m/s 737 mmHg 49%
    16:00 +34°C° 0 mm 1 m/s 737 mmHg 52%
    17:00 +33°C° 0 mm 1 m/s 737 mmHg 54%
    18:00 +32°C° 0.3 mm 1 m/s 737 mmHg 59%
    19:00 +29°C° 0.3 mm 0 m/s 738 mmHg 63%
    20:00 +27°C° 0.3 mm 0 m/s 738 mmHg 67%
    21:00 +27°C° 0.1 mm 0 m/s 738 mmHg 70%
    22:00 +28°C° 0.1 mm 1 m/s 738 mmHg 72%
    23:00 +28°C° 0.1 mm 1 m/s 739 mmHg 74%

    23 Dezembro, Domingo

    Tempo Temperatura Precipitação Vento Pressão Humidade
    00:00 +27°C° 0.2 mm 1 m/s 738 mmHg 77%
    01:00 +27°C° 0.2 mm 1 m/s 738 mmHg 80%
    02:00 +26°C° 0.2 mm 1 m/s 738 mmHg 83%
    03:00 +26°C° 0.2 mm 1 m/s 738 mmHg 84%
    04:00 +26°C° 0.2 mm 1 m/s 738 mmHg 85%
    05:00 +25°C° 0.2 mm 1 m/s 739 mmHg 86%
    06:00 +27°C° 0.3 mm 1 m/s 739 mmHg 80%
    07:00 +29°C° 0.3 mm 1 m/s 740 mmHg 73%
    08:00 +30°C° 0.3 mm 0 m/s 740 mmHg 67%
    09:00 +32°C° 0.4 mm 0 m/s 740 mmHg 58%
    10:00 +34°C° 0.4 mm 0 m/s 740 mmHg 50%
    11:00 +37°C° 0.4 mm 0 m/s 740 mmHg 41%
    12:00 +39°C° 0 mm 1 m/s 739 mmHg 41%
    13:00 +39°C° 0 mm 1 m/s 738 mmHg 40%
    14:00 +39°C° 0 mm 1 m/s 737 mmHg 40%
    15:00 +37°C° 0 mm 1 m/s 737 mmHg 43%
    16:00 +35°C° 0 mm 1 m/s 737 mmHg 47%
    17:00 +34°C° 0 mm 1 m/s 736 mmHg 50%
    18:00 +33°C° 0.1 mm 1 m/s 737 mmHg 53%
    19:00 +32°C° 0.1 mm 1 m/s 737 mmHg 57%
    20:00 +30°C° 0.1 mm 1 m/s 737 mmHg 60%
    21:00 +30°C° 0.1 mm 1 m/s 738 mmHg 62%
    22:00 +29°C° 0.1 mm 1 m/s 738 mmHg 64%
    23:00 +27°C° 0.1 mm 0 m/s 738 mmHg 66%

    24 Dezembro, Segunda-feira

    Tempo Temperatura Precipitação Vento Pressão Humidade
    00:00 +26°C° 0.1 mm 0 m/s 738 mmHg 69%
    01:00 +26°C° 0.1 mm 0 m/s 737 mmHg 72%
    02:00 +25°C° 0.1 mm 0 m/s 737 mmHg 75%
    03:00 +25°C° 0 mm 0 m/s 737 mmHg 77%
    04:00 +27°C° 0 mm 1 m/s 738 mmHg 78%
    05:00 +27°C° 0 mm 1 m/s 738 mmHg 80%
    06:00 +28°C° 0 mm 1 m/s 738 mmHg 75%
    07:00 +29°C° 0 mm 2 m/s 739 mmHg 71%
    08:00 +30°C° 0 mm 2 m/s 740 mmHg 67%
    09:00 +32°C° 0.3 mm 2 m/s 740 mmHg 61%
    10:00 +35°C° 0.3 mm 2 m/s 739 mmHg 55%
    11:00 +36°C° 0.3 mm 2 m/s 739 mmHg 49%
    12:00 +36°C° 0.2 mm 2 m/s 738 mmHg 48%
    13:00 +36°C° 0.2 mm 2 m/s 738 mmHg 47%
    14:00 +37°C° 0.2 mm 2 m/s 737 mmHg 46%
    15:00 +35°C° 0.2 mm 1 m/s 737 mmHg 49%
    16:00 +34°C° 0.2 mm 1 m/s 736 mmHg 52%
    17:00 +33°C° 0.2 mm 1 m/s 736 mmHg 55%
    18:00 +32°C° 0.1 mm 1 m/s 737 mmHg 57%
    19:00 +31°C° 0.1 mm 1 m/s 737 mmHg 59%
    20:00 +30°C° 0.1 mm 1 m/s 737 mmHg 61%
    21:00 +29°C° 0.4 mm 1 m/s 738 mmHg 66%
    22:00 +28°C° 0.4 mm 1 m/s 738 mmHg 71%
    23:00 +27°C° 0.4 mm 1 m/s 738 mmHg 76%
    Mostrar mais